Lapse_Rate
6.1 6.1 6.0 6.1 6.1 6.2 6.2 6.2 6.3 6.7 7.0 6.8 6.5 6.6 6.7 6.7 6.4 6.3 6.0 5.8 6.0 6.5 6.5 6.1 6.3 6.1 6.0 5.4 5.4 5.6 5.3 5.4 5.2 5.3 5.3 5.5 5.4 5.0 4.6 4.7 4.5 4.4 4.7 5.0 5.3 5.7 5.2
6.1 6.1 6.2 5.8 5.9 5.8 6.1 6.1 6.0 5.9 6.0 6.4 6.1 5.9 6.0 6.2 6.3 6.1 6.0 5.8 5.8 6.2 6.7 6.4 6.2 6.3 5.9 5.5 5.6 5.7 5.3 5.3 5.3 5.3 5.4 5.0 4.5 4.5 4.4 4.4 4.6 4.6 4.5 4.6 5.1 5.1 5.2
6.1 6.1 6.1 6.0 5.9 6.0 5.7 5.4 4.6 3.7 3.5 3.4 4.2 5.0 5.4 5.6 5.9 6.0 5.9 5.7 5.7 5.9 6.0 6.4 6.4 6.5 6.0 5.8 5.5 5.8 5.7 5.8 5.5 5.5 5.5 5.1 4.7 4.8 4.7 4.6 4.5 4.5 4.6 5.1 5.1 5.9 5.6
5.8 5.9 6.0 5.9 5.6 5.5 5.4 4.7 4.0 4.0 3.9 3.3 2.9 3.0 4.3 4.9 5.4 5.6 5.8 5.8 5.7 5.8 5.9 6.0 6.4 6.5 6.3 5.6 6.0 6.2 5.6 5.6 5.7 5.7 5.4 5.2 5.0 4.9 4.7 4.5 4.7 5.1 4.6 4.9 5.8 5.8 5.6
5.7 5.9 5.7 5.6 5.4 5.2 5.0 4.5 4.3 3.9 4.2 4.7 4.9 4.8 4.5 5.2 5.0 4.9 5.3 5.8 5.9 5.8 6.0 6.3 6.0 6.5 6.3 6.3 6.1 5.9 5.7 5.9 5.8 5.6 5.6 5.3 5.1 5.0 4.9 5.0 5.1 4.9 5.0 5.5 5.5 5.6 5.3
5.6 5.7 5.6 5.4 5.3 5.1 5.0 4.1 3.8 4.4 5.1 5.4 5.4 5.3 5.3 5.4 5.5 4.8 4.5 5.4 5.6 5.7 5.9 6.3 5.8 6.0 6.0 6.5 6.3 6.2 5.8 5.7 5.7 5.6 5.4 5.3 5.0 5.0 5.2 5.0 5.4 5.7 5.4 5.5 5.8 5.6 5.6
5.5 5.7 5.6 5.2 5.0 3.8 3.1 3.6 4.3 5.3 5.4 5.9 6.2 6.0 6.0 5.9 5.9 5.8 4.6 4.5 4.9 5.6 5.9 5.8 5.8 6.1 6.3 6.7 6.6 6.4 5.9 5.6 5.3 5.3 5.2 5.2 5.0 5.7 5.8 5.4 5.8 5.4 5.2 5.4 6.0 5.9 5.3
5.6 5.7 5.5 4.7 3.4 2.8 3.3 3.9 4.7 5.5 6.0 6.4 6.7 6.8 7.3 7.3 6.6 6.1 5.5 4.4 5.0 5.3 5.7 5.9 5.9 5.6 6.3 6.5 6.6 6.3 5.9 5.7 5.2 5.4 5.2 5.2 5.7 5.9 5.5 5.6 5.5 5.3 5.3 5.5 5.6 5.5 4.8
5.7 5.5 5.2 4.2 3.0 2.8 3.2 4.2 5.1 5.8 6.3 6.9 7.0 6.9 7.1 7.5 7.4 6.6 6.3 5.2 5.7 6.2 6.0 6.1 5.7 5.7 6.4 6.4 6.4 6.6 6.2 5.8 5.8 5.5 5.2 5.4 5.6 6.0 5.6 5.3 5.6 5.6 5.2 5.3 5.3 5.3 5.2
5.6 5.5 4.9 3.8 2.7 2.8 3.4 4.3 5.2 5.9 6.7 6.8 6.8 7.1 7.2 7.2 7.2 6.9 6.4 5.9 6.2 6.2 6.1 6.1 5.7 5.9 6.0 5.7 6.1 6.1 5.8 5.5 5.3 5.4 5.3 5.1 5.2 5.2 5.5 5.4 5.3 5.2 5.4 5.4 5.3 4.9 4.9
5.6 5.3 4.6 3.6 2.5 2.9 3.7 4.3 5.4 6.4 6.8 6.8 7.0 7.2 7.3 7.4 7.2 6.6 6.1 6.4 5.7 5.7 6.4 6.2 5.9 5.9 6.0 5.8 5.9 5.7 5.5 5.3 5.3 5.3 5.2 5.3 5.3 5.2 5.5 5.8 5.0 5.0 4.9 4.9 4.8 4.4 4.0
5.5 5.2 4.3 3.3 2.5 2.9 4.0 4.8 5.8 6.6 6.9 7.0 7.2 7.4 7.5 6.9 6.8 6.3 6.1 5.9 5.3 5.6 6.6 5.9 5.9 5.7 5.8 5.2 5.3 5.6 5.3 5.2 5.1 5.1 5.1 5.2 4.7 5.3 5.3 5.0 4.8 4.5 4.3 4.4 4.1 3.8 3.0
5.3 5.2 4.4 3.4 3.0 3.0 4.4 5.5 6.7 7.2 7.4 7.5 7.2 7.3 7.0 7.2 7.2 6.0 6.1 6.3 6.0 5.7 5.9 5.7 5.7 5.6 5.7 5.2 5.0 5.1 5.0 5.2 5.4 4.8 4.6 4.8 4.8 5.0 5.0 4.6 4.5 4.1 4.1 4.2 3.8 3.3 3.0
5.3 5.1 4.6 3.9 3.5 3.8 5.2 6.5 7.0 7.3 7.6 7.7 7.2 6.8 6.9 7.1 6.5 6.3 6.1 6.7 6.2 6.3 6.2 5.7 5.7 5.7 5.5 5.0 5.0 5.1 5.0 4.6 4.6 5.0 5.1 4.7 4.9 4.8 4.7 4.5 4.5 4.3 4.2 5.1 4.7 4.0 4.2
5.4 5.1 4.7 4.1 4.1 4.3 6.0 6.5 6.7 7.2 7.5 7.5 7.2 7.1 7.6 7.2 6.3 6.8 7.0 5.8 6.3 6.4 6.0 5.7 5.6 5.6 5.3 5.1 5.2 4.9 4.7 4.7 4.8 4.7 5.2 5.0 4.8 4.7 4.7 4.7 4.5 4.2 4.1 5.2 4.5 4.5 3.6
5.5 5.0 4.9 4.5 4.6 4.7 6.2 6.6 6.8 6.9 6.9 6.8 7.0 7.1 7.0 6.8 6.3 6.4 5.8 6.2 5.9 6.4 5.9 5.8 5.8 5.5 5.2 5.0 5.2 5.0 5.0 5.1 4.8 4.8 4.9 4.9 4.9 4.8 4.7 4.6 4.6 4.4 4.7 4.3 4.2 3.0 3.7
5.5 5.3 5.2 4.7 4.7 5.1 6.1 6.8 6.5 6.2 6.4 6.6 6.9 6.8 6.8 6.5 5.9 5.9 6.0 6.3 6.3 6.4 6.1 6.2 6.1 5.6 5.6 5.1 5.4 5.2 5.2 5.4 4.8 4.8 4.7 4.6 4.8 4.6 4.5 4.6 5.3 4.6 4.2 4.1 4.0 4.1 3.8
5.5 5.4 5.3 4.9 4.8 4.9 5.7 6.4 6.4 6.1 6.6 6.9 7.0 6.9 7.2 6.5 6.0 6.3 6.4 6.1 6.7 6.4 6.3 6.0 6.4 6.2 5.6 5.5 5.8 5.4 5.5 5.4 5.1 5.0 4.8 4.7 4.7 4.5 5.1 5.2 4.9 4.4 4.4 4.3 4.1 4.9 4.5
5.4 5.5 5.4 5.2 4.9 5.0 5.7 6.1 6.3 6.4 6.5 6.4 6.8 6.4 6.8 6.3 6.0 6.7 6.5 6.7 6.8 6.3 6.4 6.2 6.5 6.6 6.3 5.8 5.9 5.9 5.4 5.4 5.3 5.2 4.9 4.8 4.5 4.6 5.0 5.1 4.7 4.4 4.9 4.6 4.3 4.1 4.0
5.4 5.5 5.6 5.3 5.1 5.1 5.6 6.1 6.6 6.4 6.8 6.5 6.4 6.3 6.4 6.8 6.8 6.5 6.7 6.4 6.5 6.3 6.3 6.6 7.0 6.6 6.3 6.2 6.1 5.8 5.6 5.6 5.5 5.1 4.8 4.7 4.8 5.0 5.2 5.4 4.8 4.3 4.7 4.8 4.4 4.0 4.4
5.4 5.5 5.6 5.2 5.5 5.2 5.5 6.1 6.3 6.3 6.5 7.2 7.1 6.9 6.0 6.3 6.4 6.7 6.6 6.7 6.4 6.3 6.3 6.7 6.5 6.3 6.4 6.2 5.9 5.8 5.4 5.4 5.1 4.9 4.6 4.7 4.7 4.7 5.0 5.1 4.5 4.8 5.3 5.1 4.5 4.8 4.4
5.3 5.3 5.6 5.4 5.7 5.3 5.7 6.3 6.3 6.5 6.1 7.1 7.2 6.8 6.8 6.9 6.5 6.6 6.7 6.6 6.4 6.4 6.4 6.4 6.2 6.1 6.2 6.1 6.0 5.8 5.4 5.1 5.2 5.0 4.7 4.8 4.5 4.8 4.8 5.2 5.2 5.2 5.4 5.2 4.9 4.9 4.9
5.2 5.2 5.6 5.3 5.7 5.7 5.5 6.3 6.5 6.5 6.5 7.0 6.9 6.8 7.2 6.7 6.3 6.4 6.4 6.3 6.3 6.5 6.5 6.5 6.2 6.1 6.0 6.1 6.0 5.7 5.5 5.4 5.3 5.2 4.8 5.0 4.9 4.8 4.7 5.2 5.2 5.3 5.8 5.3 5.0 5.0 5.1
5.0 5.0 5.5 5.5 5.5 5.8 5.6 5.9 6.7 6.6 6.5 6.6 6.7 6.9 6.8 6.6 6.3 5.9 6.0 6.2 6.3 6.4 6.5 6.4 6.2 6.0 5.9 5.8 5.8 5.9 5.5 5.3 5.0 4.9 5.0 5.0 5.1 4.6 4.6 5.4 4.9 5.8 5.8 5.4 5.2 5.6 4.9
4.8 4.9 5.2 5.3 5.5 5.6 5.8 5.9 6.1 6.7 6.5 6.5 6.3 6.3 6.7 6.3 6.0 5.9 5.8 6.1 6.1 6.1 6.2 5.9 5.8 5.9 5.8 5.7 5.7 5.7 5.5 5.6 5.5 5.2 5.1 5.1 5.0 4.8 4.7 5.0 5.7 6.0 5.8 5.6 5.5 5.9 5.3
4.7 4.9 4.9 5.0 5.2 5.6 5.8 5.7 5.9 6.1 6.6 6.4 6.3 6.0 6.0 6.0 5.9 5.8 5.7 5.7 5.7 5.7 6.0 6.0 6.0 6.0 5.9 5.7 5.8 5.9 5.8 6.0 5.5 5.2 5.1 5.1 4.9 4.8 4.8 4.9 5.4 6.1 6.1 6.0 6.0 5.9 5.7
4.8 4.9 5.0 4.9 4.8 5.4 5.4 5.8 5.7 5.9 6.1 6.3 6.1 5.8 5.6 5.8 6.1 6.3 5.8 5.8 5.8 5.9 6.0 6.2 6.2 6.3 6.0 5.9 5.9 5.7 5.6 5.7 5.7 5.5 5.5 5.0 5.1 4.8 4.7 4.8 5.2 6.1 6.0 5.9 6.1 6.2 6.0
4.8 4.8 4.8 4.7 4.7 5.0 4.9 5.0 5.5 5.4 5.4 5.9 5.6 5.7 5.5 5.6 6.0 6.2 6.5 5.9 5.9 6.1 6.2 6.5 6.4 6.3 6.0 5.9 5.8 5.5 5.6 5.6 5.6 5.7 5.9 5.6 5.2 4.8 4.7 4.6 4.8 5.8 5.9 5.8 6.2 6.2 6.2
4.7 4.9 4.8 4.7 4.6 4.7 4.7 4.5 4.5 4.7 4.5 4.8 5.3 5.0 5.3 5.7 5.8 6.3 6.4 6.5 6.9 6.7 6.7 6.7 6.5 6.3 6.4 6.1 5.9 5.7 5.7 5.6 5.5 5.5 5.7 5.8 5.8 5.7 5.6 5.8 5.9 5.8 6.1 6.3 6.4 6.4 6.4
Wind_Speed
22 22 22 22 24 26 25 22 22 23 21 22 22 23 22 21 21 21 21 21 21 20 14 10 8 7 5 5 6 6 5 5 11 11 14 11 11 10 11 8 11 11 15 12 9 9 7
22 22 24 24 25 23 25 25 24 23 23 23 23 23 23 23 22 22 22 22 21 20 15 11 7 4 4 11 8 8 6 9 10 14 11 9 1 6 5 7 8 4 6 10 12 11 7
22 25 25 26 25 24 26 26 27 24 25 26 26 26 24 24 23 21 22 22 21 19 12 13 10 7 9 11 3 9 1 6 7 15 9 8 3 2 7 4 9 5 8 11 13 12 9
24 26 26 28 29 28 29 28 27 24 23 24 26 27 28 25 23 25 22 23 22 22 20 16 11 8 6 3 1 4 12 9 6 11 8 5 3 2 1 4 1 3 9 7 10 18 11
25 27 27 31 32 31 32 30 29 25 22 23 25 25 26 25 23 23 22 23 22 23 18 17 6 7 6 4 8 8 8 9 6 4 12 7 4 3 5 2 3 7 6 10 7 7 4
26 29 31 30 32 32 33 30 27 23 24 23 23 23 24 20 24 23 21 19 17 15 7 7 6 7 8 8 8 12 6 8 10 11 7 6 5 5 5 6 5 5 8 7 7 4 4
28 28 29 30 31 30 30 30 27 26 25 24 22 24 23 20 17 15 11 4 3 4 10 5 12 2 11 11 10 11 10 11 9 11 5 5 4 8 11 12 12 10 7 11 10 9 8
27 29 29 31 31 31 31 29 27 26 25 23 22 23 19 17 18 20 9 3 4 4 4 15 5 15 13 11 9 12 12 9 8 11 7 3 8 9 7 4 3 7 7 10 11 10 6
28 31 31 32 31 30 30 27 26 25 23 22 22 22 18 16 22 12 6 11 6 9 4 9 7 11 12 7 8 15 15 10 12 12 12 5 2 10 11 5 4 7 7 9 11 10 11
28 31 31 31 29 30 29 27 25 24 23 22 22 20 14 13 11 8 4 7 9 2 2 9 5 8 6 7 6 13 12 7 6 14 11 9 5 3 4 7 5 6 5 6 7 5 4
28 31 31 30 29 28 27 27 27 26 24 24 21 19 15 10 5 5 4 4 8 3 6 12 8 10 10 5 14 11 13 3 11 8 5 1 3 5 5 4 6 3 5 5 5 6 7
28 30 30 30 29 28 28 26 26 27 25 23 24 23 24 7 6 6 10 2 5 4 4 4 6 13 14 9 3 12 10 1 3 4 9 4 5 1 3 3 2 6 2 2 4 1 4
27 29 30 29 27 29 27 27 26 27 26 26 29 32 23 7 6 6 7 0 4 5 6 7 6 13 16 11 8 15 10 8 5 5 8 4 9 4 2 1 3 5 2 1 2 2 7
27 30 28 27 28 27 27 26 29 28 29 28 31 33 10 5 17 9 4 1 4 5 1 5 9 16 9 14 7 11 11 8 10 8 6 5 3 14 9 8 6 9 6 3 5 3 4
27 30 29 27 27 28 29 28 29 29 31 31 29 6 5 3 20 9 3 3 4 4 9 10 15 5 5 12 7 9 11 7 11 10 4 5 1 11 12 8 7 6 6 3 5 6 5
27 29 29 26 27 26 27 29 31 32 32 33 4 1 7 12 16 6 1 2 1 7 16 15 5 7 7 15 7 11 12 12 12 15 8 3 2 2 6 2 6 6 3 2 1 3 6
25 26 28 28 26 27 28 30 32 35 36 23 1 2 5 12 2 2 2 3 4 7 14 3 8 9 9 13 7 10 10 3 15 12 13 5 0 4 5 8 9 5 7 2 3 3 3
25 27 28 27 26 27 29 30 32 35 36 5 3 2 3 3 1 2 2 3 3 2 4 3 2 11 11 14 9 8 10 3 12 11 11 7 2 3 10 8 13 9 8 13 3 6 4
25 27 27 27 26 27 29 32 35 36 28 3 2 2 1 2 1 3 3 4 2 3 4 2 3 4 15 11 6 9 8 5 4 6 10 8 3 2 2 3 7 6 9 10 14 9 16
24 25 26 26 26 27 29 31 33 37 30 3 1 2 2 1 2 1 2 1 4 5 5 7 7 4 6 9 5 7 6 2 5 5 6 9 3 5 3 2 2 4 6 9 9 5 11
23 24 25 26 27 28 29 31 33 36 30 2 1 2 3 2 2 7 3 3 6 4 4 4 2 2 5 6 4 4 7 7 5 4 4 2 3 4 7 13 12 14 17 16 16 18 13
21 22 23 23 24 26 28 29 32 36 32 2 3 3 5 2 11 11 5 1 1 5 5 2 2 5 3 4 6 8 6 6 6 8 5 3 3 3 5 15 16 15 16 18 18 18 18
20 20 20 21 23 24 26 27 29 32 23 3 3 2 3 1 4 2 3 3 3 1 4 7 3 4 6 8 6 5 5 2 3 6 9 5 2 2 4 10 12 6 5 5 9 11 11
18 19 19 19 20 23 24 25 26 28 24 3 2 2 3 2 3 2 3 2 5 7 6 4 4 4 3 3 1 1 1 3 4 5 2 5 4 2 4 9 2 3 6 5 6 12 12
17 19 18 18 18 20 21 23 22 24 26 6 2 3 3 4 3 1 4 3 6 4 5 6 5 3 3 2 2 2 2 2 6 8 9 6 3 2 2 2 8 4 4 2 1 5 6
17 18 18 18 17 17 19 20 21 21 22 9 1 2 3 3 3 9 5 4 2 4 4 3 3 4 2 1 1 1 1 3 4 3 4 8 8 2 1 3 3 3 3 5 3 3 2
17 17 17 17 17 16 16 18 19 20 19 8 2 4 3 3 3 6 2 1 2 2 3 2 3 1 2 1 1 1 2 3 2 5 5 3 3 9 7 3 7 6 4 6 2 4 4
17 17 18 17 17 17 17 17 16 17 16 8 4 5 2 3 7 6 8 5 2 2 3 3 3 1 2 1 1 1 2 3 3 3 5 7 6 3 3 4 7 1 1 2 3 3 4
17 17 18 18 17 17 17 18 16 14 14 11 3 5 4 3 5 4 10 14 8 4 1 3 1 3 2 2 2 1 2 3 5 3 0 3 5 4 6 6 6 4 7 1 3 2 5
Wind_Direction
349 348 341 338 339 334 331 330 331 325 323 322 324 325 322 323 321 320 317 324 324 325 235 220 234 275 283 215 240 125 135 170 212 214 221 208 207 212 227 222 231 230 245 258 261 260 296
341 334 334 331 333 326 322 324 323 324 320 315 315 320 322 319 316 315 312 313 320 330 242 217 206 250 232 242 142 145 195 177 218 200 222 224 209 303 286 269 240 253 284 273 272 275 246
343 340 336 333 327 319 317 318 315 317 313 314 314 317 319 317 312 308 311 310 310 311 281 218 198 211 233 238 225 164 288 260 228 190 190 223 88 245 3 309 330 296 303 277 258 248 241
338 336 335 325 323 323 318 321 316 310 307 318 313 315 316 316 314 306 306 302 298 307 313 214 189 215 240 173 147 203 181 212 247 160 187 148 149 42 266 40 260 257 246 260 246 221 223
338 337 335 334 331 328 326 328 328 323 320 311 312 313 313 312 307 305 300 297 293 300 301 193 171 222 230 144 195 192 196 170 146 164 149 170 174 194 165 211 233 214 263 217 251 167 192
341 345 337 336 332 331 332 332 332 324 321 316 315 310 307 306 311 303 301 286 282 290 214 195 280 186 211 205 164 188 212 157 159 151 132 154 192 187 188 185 199 211 213 261 288 124 178
342 338 333 334 335 339 333 334 330 328 324 321 320 313 310 301 312 310 320 301 241 179 182 186 179 257 142 108 130 173 189 157 160 161 168 187 183 204 201 208 250 302 310 304 311 320 330
338 336 333 340 336 334 335 334 330 332 325 326 321 319 323 321 312 316 309 243 315 29 177 243 159 228 126 152 138 172 183 160 170 194 138 138 235 219 246 273 300 260 273 277 279 272 301
340 338 340 337 340 340 340 337 335 332 327 324 321 320 321 314 317 308 307 267 111 9 219 206 223 176 152 200 146 167 181 180 185 201 173 198 64 199 237 239 211 260 257 274 290 317 315
339 337 341 340 342 343 343 340 337 334 329 321 319 314 313 309 302 329 299 334 104 31 180 155 197 164 165 217 136 162 193 178 186 203 209 231 208 162 194 214 208 264 355 330 295 338 260
343 341 344 340 342 345 343 339 338 335 329 321 321 311 298 303 294 303 25 355 101 319 161 146 159 137 157 210 120 177 206 158 192 200 149 191 194 202 206 226 208 223 59 360 324 300 353
345 342 343 342 344 345 341 342 335 328 327 325 318 308 298 261 224 257 25 347 74 279 154 115 139 170 153 167 94 153 177 80 322 232 194 190 39 303 210 186 263 59 86 245 287 250 256
343 343 343 346 342 344 342 342 333 331 327 321 316 309 302 247 195 163 74 204 135 262 164 130 144 155 158 153 129 163 165 184 157 141 213 248 229 152 268 127 164 220 133 281 262 208 232
342 344 345 350 344 347 342 341 338 334 328 324 319 316 282 228 190 169 83 160 248 117 133 177 138 143 162 146 139 174 172 187 232 236 121 179 205 194 169 211 178 197 188 206 269 237 288
346 342 348 350 347 346 345 344 339 334 326 325 323 312 23 2 151 145 123 146 295 113 138 133 124 110 127 177 139 167 186 195 200 205 202 162 275 145 158 202 237 154 211 309 315 272 273
346 348 348 353 352 351 348 347 338 334 330 324 313 296 55 92 122 126 188 295 227 276 122 148 97 184 147 179 156 185 181 200 212 196 216 32 133 211 142 203 230 225 172 130 140 259 267
350 347 347 354 351 352 351 350 343 336 335 337 317 71 119 134 99 17 282 354 35 280 157 262 141 143 154 165 155 183 181 164 192 184 198 195 201 122 84 206 194 189 236 205 343 236 250
346 346 349 353 352 353 354 351 347 342 338 358 355 94 215 227 79 260 27 303 324 38 338 15 120 138 148 166 162 184 198 266 179 161 182 197 151 221 216 222 213 199 196 211 222 232 229
347 349 351 352 353 355 357 354 350 347 352 304 41 85 61 314 25 21 348 350 285 23 342 45 75 30 147 167 142 221 99 91 113 165 168 172 175 254 283 163 218 215 229 233 230 268 248
345 350 353 353 357 355 358 356 352 354 2 25 356 69 53 331 248 131 331 124 112 328 42 64 79 69 122 130 328 116 100 152 174 197 58 160 187 210 219 184 59 232 236 248 257 255 266
347 351 354 358 1 356 0 358 359 0 359 357 327 144 169 176 77 66 294 34 71 29 17 34 76 94 138 146 100 128 143 126 168 157 153 153 232 272 263 277 279 273 273 267 249 252 258
347 353 355 359 359 357 1 1 4 6 355 57 10 359 328 9 143 194 187 26 163 89 16 80 162 139 26 108 55 167 155 182 168 173 185 184 268 21 279 255 247 257 259 255 261 264 264
343 350 353 356 359 0 2 8 6 9 9 352 340 312 293 289 249 276 32 72 86 83 60 24 74 131 89 47 55 40 20 22 80 164 184 158 147 360 261 326 313 267 236 231 271 255 254
340 343 347 353 0 355 358 4 8 9 12 330 344 287 296 218 269 114 87 108 104 48 87 52 21 59 62 20 167 155 355 303 271 163 131 158 148 167 293 314 277 120 168 200 253 269 272
337 337 340 347 356 354 355 357 7 10 8 356 337 345 338 301 198 155 150 121 142 109 82 95 64 50 335 301 259 228 163 216 225 199 199 172 173 227 268 267 269 292 133 236 205 299 357
332 330 332 338 347 351 349 353 356 7 8 354 13 321 312 308 198 325 163 151 136 164 163 103 65 359 324 312 199 262 232 284 135 136 181 198 217 232 321 314 285 99 134 128 147 266 318
325 325 326 330 333 340 346 345 353 357 3 356 286 3 290 297 284 347 272 186 183 116 88 149 154 88 318 190 171 220 277 335 223 185 169 177 190 222 224 256 278 279 135 148 317 286 350
325 325 323 324 325 329 333 333 339 352 356 4 301 33 342 301 286 293 319 323 13 134 174 124 143 209 166 130 120 174 261 284 293 155 171 173 183 189 168 223 264 217 213 230 259 314 339
321 327 323 322 324 325 324 322 323 334 343 354 324 328 315 231 281 319 279 270 262 315 344 153 25 133 97 115 197 337 255 280 324 281 34 217 202 170 189 214 245 239 211 230 85 299 301